Weather in Ruem

Russia / Mari El Republic     56°37′59″N   47°45′28″E
temp.,
°C
wind,
m/s
gust,
m/s
humid.,
%
clouds,
%
prec.,
mm/h
press.,
hPa
HPBL,
m
26 february, fri
fri2600:00−18se3895100 0.0 1017316
03:00−20se389796 0.1 1018227
06:00−21se389893 0.0 1017211
09:00−19se489597 0.0 1016318
12:00−14se5991100 0.0 1014501
15:00−13se61291100 0.1 1011611
18:00−12se81593100 0.9 1005608
21:00−11se71594100 5.9 1000732
27 february, sat
sat2700:00−11se51194100 3.4 997535
03:00−11ese4995100 4.8 997346
06:00−11e4895100 0.9 995318
09:00−11ene4894100 2.3 997370
12:00−10ne5892100 0.4 998532
15:00−11ne6991100 0.7 1001617
18:00−12nne51092100 0.3 1003556
21:00−13nne41093100 0.4 1006453
28 february, sun
sun2800:00−16n4994100 0.1 1007276
03:00−19n399577 0.1 1009232
06:00−21n379754 0.0 1010168
09:00−18n369444 0.0 1011258
12:00−14n359070 0.0 1012427
15:00−14n478984 0.0 1013540
18:00−18n2396100 0.0 101554
21:00−21nne239762 0.0 101828
1 march, mon
mon100:00−22n23970 0.0 101922
03:00−22n22970 0.0 102120
06:00−23nnw22980 0.0 102220
09:00−18nw11940 0.0 1023124
12:00−13wsw238659 0.0 1023384
15:00−11wsw359179 0.0 1022443
18:00−14ssw389799 0.0 1019198
21:00−13sw41095100 0.1 1016345
2 march, tue
tue200:00−10sw51194100 0.8 1012472
03:00−6sw41095100 2.4 1008518
06:00−5sw4996100 0.9 1005385
09:000nw499194 1.5 1004806
12:000nw479399 0.1 1003641
15:000nw259799 0.5 1002468
18:00−2wnw259898 0.1 1002121
21:00−3nw4109297 0.3 1003365